Temp
-11 -12 -11 -12 -12 -11 -11 -11 -12 -11 -11 -12 -12 -12 -12 -13 -12 -12 -12 -12 -13 -13 -13 -13 -13 -13 -13 -13 -13 -13 -13 -13 -13 -13 -13 -13 -13 -13 -13 -13 -13 -13 -13
-12 -12 -12 -11 -11 -11 -11 -12 -12 -12 -11 -11 -12 -12 -12 -12 -12 -12 -12 -13 -13 -13 -13 -13 -13 -13 -13 -13 -13 -13 -13 -13 -13 -13 -13 -13 -13 -13 -13 -13 -13 -13 -13
-12 -13 -13 -12 -11 -11 -12 -12 -12 -11 -12 -11 -11 -11 -12 -12 -12 -13 -12 -12 -13 -13 -13 -14 -13 -13 -13 -13 -13 -13 -13 -13 -13 -13 -13 -13 -12 -13 -13 -12 -13 -13 -13
-12 -14 -14 -12 -11 -11 -12 -11 -11 -11 -11 -11 -11 -11 -12 -12 -12 -12 -12 -12 -12 -13 -13 -14 -14 -13 -13 -13 -13 -13 -13 -13 -13 -13 -13 -13 -13 -12 -13 -13 -13 -13 -13
-14 -14 -14 -12 -11 -11 -12 -11 -12 -12 -12 -12 -11 -11 -12 -12 -12 -12 -12 -12 -12 -13 -13 -14 -14 -13 -13 -13 -13 -13 -13 -13 -13 -13 -13 -13 -13 -13 -13 -13 -13 -13 -13
-14 -14 -14 -14 -12 -12 -11 -11 -12 -12 -12 -12 -11 -11 -12 -12 -11 -12 -12 -12 -12 -13 -13 -14 -14 -13 -13 -13 -13 -13 -13 -13 -12 -13 -13 -13 -13 -13 -13 -13 -13 -13 -13
-14 -14 -14 -15 -13 -12 -11 -11 -11 -12 -12 -12 -12 -12 -11 -12 -11 -11 -12 -12 -12 -13 -13 -14 -14 -13 -13 -13 -13 -13 -13 -12 -12 -13 -14 -13 -13 -13 -13 -13 -13 -13 -13
-14 -16 -14 -13 -12 -12 -12 -12 -12 -12 -12 -12 -12 -12 -11 -12 -11 -11 -11 -12 -12 -13 -13 -14 -14 -13 -13 -13 -13 -13 -13 -13 -13 -13 -14 -13 -13 -13 -14 -13 -13 -13 -13
-17 -16 -14 -13 -14 -14 -13 -12 -12 -12 -12 -12 -12 -12 -12 -12 -12 -11 -11 -12 -12 -12 -13 -14 -14 -14 -14 -14 -13 -13 -13 -13 -13 -13 -14 -13 -13 -13 -13 -13 -13 -13 -13
-16 -16 -15 -14 -15 -15 -14 -13 -13 -13 -12 -12 -12 -12 -12 -12 -12 -11 -11 -12 -12 -12 -13 -14 -14 -14 -14 -14 -13 -13 -13 -13 -14 -14 -13 -14 -13 -13 -13 -13 -13 -13 -13
-16 -16 -16 -16 -15 -15 -14 -14 -13 -13 -12 -12 -12 -12 -12 -12 -12 -11 -12 -12 -12 -12 -13 -14 -14 -14 -14 -14 -13 -13 -14 -14 -14 -14 -14 -14 -14 -14 -14 -14 -14 -14 -14
-17 -18 -17 -16 -16 -15 -14 -14 -13 -13 -13 -13 -12 -12 -12 -12 -12 -12 -12 -12 -12 -12 -14 -14 -14 -14 -14 -14 -13 -14 -14 -14 -14 -14 -14 -14 -14 -14 -14 -14 -14 -14 -14
-18 -18 -17 -16 -15 -15 -14 -14 -13 -13 -13 -12 -12 -12 -12 -12 -12 -12 -12 -12 -12 -13 -13 -14 -14 -14 -14 -14 -14 -14 -14 -14 -14 -14 -14 -14 -14 -14 -14 -14 -14 -14 -14
-18 -18 -17 -16 -15 -15 -14 -13 -13 -13 -13 -13 -13 -13 -13 -12 -12 -12 -12 -12 -12 -13 -14 -14 -14 -14 -14 -14 -14 -14 -14 -14 -14 -14 -14 -14 -14 -14 -14 -14 -14 -14 -14
-18 -17 -17 -16 -16 -15 -14 -13 -13 -13 -13 -13 -13 -13 -13 -12 -12 -12 -13 -12 -13 -14 -14 -15 -14 -14 -14 -14 -14 -14 -14 -14 -14 -15 -14 -14 -14 -14 -14 -14 -14 -14 -14
-18 -18 -17 -16 -15 -15 -14 -14 -13 -13 -13 -13 -13 -13 -12 -13 -12 -12 -13 -13 -15 -14 -14 -15 -14 -14 -14 -14 -14 -14 -14 -14 -14 -14 -14 -14 -14 -14 -14 -14 -15 -15 -15
-18 -18 -17 -17 -16 -15 -14 -14 -14 -13 -13 -13 -13 -13 -13 -13 -14 -15 -15 -15 -16 -15 -15 -15 -15 -15 -14 -14 -15 -15 -15 -14 -14 -14 -14 -14 -14 -14 -14 -14 -14 -15 -15
-18 -18 -18 -17 -17 -16 -15 -15 -14 -14 -14 -13 -14 -14 -15 -15 -15 -16 -16 -16 -16 -16 -15 -15 -15 -15 -14 -14 -15 -15 -15 -15 -15 -15 -14 -14 -14 -14 -15 -15 -15 -15 -15
-19 -19 -18 -18 -18 -17 -16 -16 -15 -15 -15 -14 -14 -15 -16 -16 -16 -16 -16 -16 -16 -16 -15 -15 -15 -15 -15 -14 -15 -15 -15 -15 -15 -15 -15 -15 -15 -14 -14 -15 -15 -15 -15
-19 -19 -19 -18 -18 -18 -17 -17 -16 -15 -15 -14 -14 -15 -15 -16 -16 -16 -16 -16 -15 -16 -15 -16 -15 -15 -15 -14 -15 -15 -15 -15 -15 -15 -15 -15 -15 -15 -15 -15 -15 -15 -15
-19 -19 -19 -19 -18 -18 -18 -17 -17 -16 -15 -15 -15 -15 -16 -16 -16 -16 -16 -16 -16 -15 -17 -16 -16 -16 -15 -15 -15 -15 -15 -15 -16 -15 -15 -15 -15 -15 -15 -15 -15 -15 -15
-20 -20 -19 -19 -18 -18 -18 -18 -17 -16 -15 -14 -14 -15 -15 -15 -15 -15 -15 -15 -15 -16 -16 -16 -16 -16 -16 -15 -16 -15 -15 -15 -16 -16 -16 -16 -16 -16 -16 -16 -16 -16 -16
-20 -20 -20 -19 -19 -19 -18 -18 -18 -17 -16 -15 -15 -15 -15 -14 -15 -15 -15 -15 -15 -15 -15 -15 -15 -15 -16 -16 -16 -16 -16 -16 -16 -16 -16 -16 -16 -16 -16 -16 -16 -16 -16
-21 -20 -20 -20 -20 -19 -19 -19 -18 -18 -17 -16 -16 -15 -15 -15 -15 -14 -14 -15 -15 -15 -15 -15 -15 -15 -16 -16 -16 -16 -16 -16 -16 -16 -16 -16 -16 -16 -16 -16 -16 -17 -17
-21 -21 -21 -20 -20 -20 -20 -20 -19 -18 -18 -17 -16 -16 -16 -15 -15 -15 -15 -15 -15 -15 -16 -16 -16 -16 -17 -17 -17 -17 -17 -17 -16 -16 -16 -16 -16 -16 -17 -17 -17 -17 -17
-21 -21 -21 -20 -20 -20 -20 -20 -20 -19 -18 -17 -17 -17 -16 -16 -16 -16 -16 -16 -16 -16 -16 -16 -16 -17 -17 -17 -17 -17 -17 -17 -17 -17 -17 -17 -17 -17 -17 -18 -18 -18 -18
Height
5724 5729 5732 5735 5734 5735 5742 5745 5745 5747 5750 5754 5754 5754 5755 5758 5757 5758 5759 5759 5759 5759 5758 5757 5756 5756 5754 5754 5753 5751 5749 5748 5746 5745 5745 5747 5749 5751 5755 5758 5761 5764 5768
5715 5717 5721 5724 5727 5727 5734 5737 5737 5738 5740 5744 5747 5745 5747 5750 5750 5751 5752 5753 5752 5752 5752 5751 5750 5749 5749 5748 5747 5746 5743 5742 5740 5739 5736 5739 5741 5744 5748 5753 5758 5760 5763
5705 5709 5709 5711 5714 5721 5726 5726 5728 5730 5732 5734 5737 5738 5741 5742 5743 5744 5744 5744 5744 5746 5745 5744 5744 5743 5743 5742 5740 5739 5737 5735 5731 5732 5731 5732 5734 5741 5743 5748 5751 5755 5758
5695 5696 5697 5699 5702 5711 5714 5716 5718 5722 5724 5726 5728 5730 5733 5732 5734 5735 5735 5736 5736 5738 5739 5739 5738 5736 5736 5735 5733 5732 5731 5729 5727 5727 5727 5725 5729 5733 5737 5741 5745 5748 5752
5682 5684 5685 5690 5694 5699 5704 5706 5710 5711 5714 5716 5719 5722 5724 5724 5725 5726 5727 5728 5728 5730 5731 5732 5731 5730 5730 5728 5726 5725 5725 5723 5721 5721 5722 5721 5724 5727 5730 5733 5738 5742 5745
5667 5670 5673 5679 5684 5690 5692 5697 5699 5701 5705 5707 5708 5712 5715 5715 5716 5717 5718 5720 5721 5723 5724 5725 5723 5722 5722 5721 5719 5717 5717 5716 5714 5715 5716 5716 5718 5721 5724 5727 5730 5734 5735
5653 5658 5661 5668 5672 5676 5681 5686 5689 5693 5695 5697 5698 5701 5704 5706 5706 5707 5709 5711 5713 5715 5717 5717 5717 5715 5715 5714 5711 5708 5706 5706 5707 5708 5711 5711 5711 5714 5717 5721 5724 5726 5728
5643 5648 5648 5655 5659 5667 5671 5675 5679 5682 5685 5686 5689 5691 5694 5696 5697 5699 5699 5702 5705 5707 5710 5710 5710 5708 5708 5707 5704 5700 5699 5698 5700 5703 5704 5704 5703 5705 5710 5714 5715 5718 5721
5632 5634 5637 5644 5652 5658 5661 5664 5668 5672 5674 5676 5679 5682 5684 5686 5688 5690 5691 5694 5696 5699 5702 5703 5703 5702 5701 5700 5698 5694 5693 5694 5696 5697 5698 5698 5699 5700 5703 5705 5707 5710 5715
5624 5628 5632 5637 5643 5646 5651 5654 5657 5661 5663 5666 5668 5672 5674 5677 5679 5680 5682 5685 5689 5690 5695 5696 5696 5695 5694 5694 5692 5689 5689 5689 5691 5692 5693 5694 5694 5695 5697 5698 5701 5705 5708
5614 5620 5626 5631 5632 5636 5640 5643 5647 5651 5652 5655 5658 5663 5663 5666 5669 5670 5673 5676 5679 5682 5686 5689 5689 5689 5689 5688 5686 5684 5684 5683 5685 5687 5689 5690 5691 5692 5693 5695 5698 5701 5703
5612 5615 5617 5620 5623 5627 5631 5633 5636 5640 5641 5643 5647 5651 5653 5656 5658 5660 5664 5667 5670 5673 5678 5681 5682 5682 5683 5682 5680 5679 5677 5677 5678 5681 5682 5685 5685 5688 5689 5691 5693 5695 5698
5607 5608 5609 5612 5615 5617 5620 5623 5624 5629 5630 5632 5635 5638 5640 5643 5647 5650 5654 5657 5660 5665 5669 5674 5674 5675 5677 5677 5675 5673 5671 5670 5671 5673 5675 5677 5680 5683 5685 5686 5687 5690 5692
5601 5602 5603 5604 5604 5606 5609 5610 5613 5615 5617 5620 5623 5625 5628 5631 5635 5640 5644 5646 5651 5655 5660 5666 5667 5668 5670 5671 5670 5669 5667 5665 5665 5665 5666 5669 5672 5675 5678 5679 5682 5685 5687
5593 5594 5595 5596 5596 5596 5598 5599 5602 5603 5605 5607 5610 5614 5616 5619 5623 5629 5632 5635 5642 5647 5652 5657 5659 5661 5663 5664 5664 5665 5663 5662 5661 5661 5660 5662 5666 5668 5671 5674 5675 5677 5680
5585 5585 5585 5585 5586 5586 5587 5588 5590 5592 5594 5594 5597 5600 5602 5605 5610 5615 5619 5624 5632 5638 5644 5648 5651 5654 5656 5658 5658 5659 5659 5659 5659 5659 5659 5658 5660 5663 5665 5667 5669 5672 5673
5576 5576 5576 5576 5575 5576 5576 5577 5577 5577 5579 5581 5583 5585 5586 5589 5594 5602 5608 5615 5623 5629 5635 5639 5643 5647 5650 5651 5652 5653 5654 5654 5655 5655 5656 5656 5657 5659 5660 5662 5664 5666 5668
5569 5569 5568 5568 5567 5566 5565 5564 5565 5565 5566 5567 5569 5571 5573 5578 5585 5592 5600 5609 5615 5620 5625 5630 5634 5638 5644 5646 5647 5648 5648 5649 5650 5651 5651 5651 5653 5654 5656 5657 5659 5661 5661
5563 5562 5561 5559 5558 5557 5555 5554 5553 5552 5553 5555 5560 5563 5566 5571 5578 5586 5594 5600 5606 5610 5616 5620 5626 5633 5637 5638 5640 5642 5643 5643 5645 5646 5647 5646 5647 5648 5649 5650 5651 5652 5654
5556 5554 5553 5553 5553 5551 5548 5546 5543 5544 5543 5546 5552 5555 5558 5564 5571 5579 5585 5592 5597 5603 5607 5612 5618 5624 5626 5629 5631 5633 5635 5637 5639 5640 5641 5641 5641 5642 5642 5643 5644 5645 5646
5550 5549 5549 5548 5547 5546 5543 5538 5533 5535 5535 5541 5546 5550 5554 5559 5566 5571 5578 5585 5589 5593 5596 5604 5609 5614 5617 5619 5621 5624 5626 5627 5629 5631 5633 5634 5634 5634 5634 5635 5636 5637 5637
5546 5546 5545 5543 5542 5539 5538 5534 5529 5526 5528 5534 5539 5545 5547 5552 5559 5565 5571 5576 5580 5582 5589 5595 5600 5603 5605 5606 5610 5613 5616 5618 5620 5621 5623 5624 5624 5624 5625 5625 5625 5626 5627
5542 5543 5542 5539 5536 5534 5532 5529 5525 5523 5525 5529 5533 5538 5543 5542 5550 5556 5564 5569 5573 5577 5582 5586 5589 5591 5594 5598 5601 5604 5606 5608 5609 5612 5614 5615 5616 5616 5617 5616 5616 5616 5614
5538 5538 5537 5535 5533 5530 5529 5525 5523 5523 5522 5524 5527 5531 5535 5542 5548 5548 5555 5559 5562 5569 5572 5577 5580 5582 5584 5590 5592 5594 5597 5598 5600 5603 5603 5605 5606 5606 5605 5605 5605 5604 5602
5534 5534 5534 5533 5531 5528 5525 5523 5522 5521 5520 5521 5525 5528 5528 5534 5538 5542 5546 5550 5553 5559 5564 5568 5571 5573 5578 5582 5581 5583 5586 5588 5589 5590 5591 5592 5592 5593 5592 5592 5592 5591 5589
5529 5529 5530 5529 5528 5526 5524 5522 5519 5519 5519 5520 5522 5524 5526 5530 5532 5536 5540 5543 5546 5550 5554 5557 5561 5564 5567 5570 5572 5573 5574 5575 5576 5577 5578 5579 5579 5579 5579 5578 5577 5576 5575
Wind_Speed
52 49 49 45 46 48 42 39 39 35 32 29 32 34 35 30 36 35 33 33 32 33 32 27 26 28 30 30 29 29 32 32 30 29 31 32 30 39 34 31 19 23 30
50 50 48 50 50 52 45 42 43 39 36 32 32 36 36 33 36 37 34 32 31 34 32 28 26 28 31 32 30 29 32 31 30 33 29 36 35 37 39 35 27 29 31
51 49 50 53 53 49 45 46 44 42 39 36 33 36 33 35 36 35 36 34 34 32 32 30 28 28 31 32 32 29 32 31 28 23 22 30 40 33 36 35 31 28 34
53 51 50 56 53 44 46 47 44 40 40 37 37 35 34 36 37 37 36 36 36 31 33 31 28 29 30 32 34 30 29 29 28 26 30 19 30 32 34 34 31 28 32
53 53 56 56 52 49 48 48 43 41 42 42 40 37 36 37 37 38 36 35 38 33 33 30 28 28 30 32 35 33 29 31 29 30 25 24 28 26 30 27 30 32 34
61 60 59 57 53 51 52 48 45 43 42 42 42 39 37 35 36 39 37 35 37 35 33 30 30 28 29 32 36 35 33 33 30 29 25 25 26 30 29 28 31 33 34
61 60 62 51 54 55 53 50 47 43 44 43 41 39 37 36 37 39 39 34 36 35 33 30 30 28 29 32 37 38 35 27 29 31 28 35 31 28 31 33 32 29 27
48 39 51 58 59 54 52 52 48 45 44 42 39 38 37 36 36 37 35 32 34 35 33 29 30 29 29 32 36 35 28 24 25 29 29 23 29 27 27 29 28 25 23
37 44 53 55 48 47 51 51 47 44 43 40 38 37 39 35 36 38 35 32 34 36 34 29 31 28 28 31 34 27 24 24 23 20 19 17 27 30 28 25 28 24 25
38 40 45 48 41 42 45 47 45 42 42 39 38 37 41 39 39 37 37 33 35 39 33 30 30 28 28 30 30 23 22 22 23 25 22 21 22 20 17 16 19 20 23
35 31 30 30 38 42 42 41 42 41 42 41 41 36 40 39 38 38 38 35 36 39 35 30 31 28 27 28 27 25 23 22 24 27 24 22 18 16 14 14 19 20 22
23 30 34 35 39 40 39 39 41 39 41 39 40 40 39 41 39 40 40 39 37 39 37 30 31 27 26 28 25 25 26 28 27 29 29 31 28 21 17 17 17 25 27
27 29 31 31 34 37 38 38 39 41 40 42 42 43 42 43 41 41 39 41 40 40 37 30 32 28 28 29 25 25 23 27 28 30 33 35 33 31 26 18 17 26 29
25 25 26 27 29 33 35 37 40 39 39 40 40 42 43 41 42 42 40 43 41 40 38 31 31 28 28 28 23 22 18 13 16 26 28 29 30 30 25 24 24 29 31
23 22 23 25 29 31 34 36 37 37 39 39 40 40 39 41 36 37 41 44 43 41 39 33 30 29 29 27 24 21 16 17 16 14 19 27 29 25 26 30 32 32 32
22 21 23 24 26 29 33 35 38 39 42 43 45 43 43 42 43 42 46 47 43 41 37 35 32 30 29 26 24 23 19 17 16 13 9 8 24 26 21 20 16 16 12
21 22 25 27 29 32 36 38 42 44 45 45 46 45 44 44 46 49 49 46 43 42 38 37 34 32 29 26 21 19 19 20 19 17 14 12 13 14 16 16 17 19 21
22 25 27 29 31 36 41 43 44 47 47 42 36 33 36 39 39 41 43 42 42 42 40 41 37 35 30 27 23 21 20 18 17 17 18 18 18 19 19 19 19 21 20
25 25 27 29 33 37 39 38 37 39 38 43 36 30 33 37 36 39 41 44 44 45 43 42 37 35 32 32 30 28 26 24 22 21 20 19 19 19 19 19 19 20 22
24 27 30 32 30 34 37 39 37 31 33 37 29 25 26 33 35 40 44 44 45 44 47 38 37 37 36 35 35 34 32 31 29 27 27 25 24 25 25 25 26 26 27
26 26 25 28 30 33 30 35 31 27 31 29 29 23 26 31 41 41 40 42 48 59 41 39 38 39 39 40 38 35 32 32 32 30 29 29 30 30 29 30 31 30 30
25 26 26 28 27 25 25 16 12 17 35 43 37 30 34 32 32 35 34 48 46 38 37 41 42 45 47 44 40 41 39 38 33 33 32 30 30 29 31 31 33 33 34
25 23 20 22 21 22 18 14 9 10 27 41 42 42 37 44 39 43 47 44 39 36 39 43 39 41 42 50 49 48 41 38 36 31 30 32 33 34 35 35 34 34 42
21 17 16 10 6 5 8 9 8 5 6 23 33 45 54 57 46 51 54 46 42 41 39 37 33 34 35 39 40 45 41 39 32 32 29 31 32 33 40 40 40 46 50
18 17 18 16 10 10 9 10 6 7 7 4 24 29 32 40 41 38 44 42 48 47 37 31 30 27 27 34 34 33 35 36 35 37 39 41 44 45 46 45 46 50 49
19 19 22 18 16 15 13 12 8 5 8 12 12 14 23 30 32 34 36 36 35 34 36 34 33 32 34 36 36 38 36 37 38 39 42 45 46 47 45 43 43 44 45
Wind_Direction
253 256 260 261 258 257 261 267 266 264 259 255 259 264 266 264 270 274 275 278 282 285 287 286 293 293 289 290 289 295 289 295 283 261 271 247 240 235 234 243 254 247 224
245 252 254 256 257 260 266 266 268 266 263 256 259 262 262 267 267 271 273 277 277 279 287 282 288 288 288 288 288 293 288 295 276 261 264 239 238 237 237 241 248 245 228
247 250 252 252 256 260 265 264 264 265 262 262 258 257 265 265 268 269 268 269 270 277 282 281 284 283 284 286 288 292 287 295 280 266 288 248 239 239 236 244 250 248 235
249 247 247 250 252 254 258 262 262 266 266 264 263 260 264 265 267 267 268 271 273 277 279 276 281 282 284 286 288 291 287 288 275 270 269 266 230 240 240 240 244 245 250
244 243 244 249 251 253 255 257 258 259 263 266 264 261 263 264 266 266 268 273 275 277 278 273 277 279 283 286 291 290 283 280 277 261 270 277 239 230 234 245 249 246 255
245 243 244 244 248 252 252 252 252 256 263 268 268 263 261 263 264 266 266 270 273 275 277 272 277 280 283 288 293 288 283 277 274 256 252 274 262 239 240 247 256 253 245
246 249 246 241 242 245 252 251 251 255 261 264 263 264 260 260 263 266 265 267 270 272 275 273 276 277 282 291 295 294 289 268 257 249 252 260 255 242 235 242 245 235 245
251 242 241 241 243 245 249 251 250 255 258 260 258 260 259 259 263 266 270 267 269 271 274 276 276 277 282 294 295 294 288 265 245 250 255 271 244 213 235 236 226 229 231
221 225 241 243 245 244 247 250 252 253 256 254 256 257 258 258 264 267 268 265 266 270 272 276 275 274 283 293 293 289 276 258 245 246 247 259 237 227 216 235 229 222 225
237 239 242 238 236 244 248 251 252 254 256 256 255 255 257 260 263 262 263 263 266 269 271 273 272 272 282 288 289 283 265 254 249 243 255 264 257 217 213 222 222 219 219
244 241 244 243 242 245 251 254 254 254 255 256 257 254 256 257 257 258 259 260 261 266 268 269 268 265 279 282 283 284 266 254 252 245 247 258 235 230 237 232 227 230 225
250 244 246 241 240 242 250 253 255 255 257 257 257 256 254 255 255 256 259 260 258 262 265 265 264 262 272 273 280 282 275 258 252 249 252 243 252 256 230 233 244 236 227
249 250 249 249 248 249 254 256 259 258 259 260 260 258 255 252 251 251 253 255 254 257 260 260 259 259 265 270 272 278 281 262 252 255 249 245 245 253 254 246 247 233 234
245 246 251 258 260 257 255 256 258 259 259 256 255 253 252 252 249 247 246 250 251 252 256 255 254 255 262 266 268 274 274 280 273 257 248 238 237 239 241 251 253 251 244
260 265 267 265 263 261 260 259 257 260 259 259 256 257 259 255 253 248 240 244 247 249 254 252 249 252 258 264 260 263 268 270 269 296 249 234 228 244 237 243 251 256 253
268 276 284 282 277 271 268 267 267 266 264 265 265 265 261 258 250 237 234 237 238 244 250 248 244 247 253 261 258 256 260 260 261 263 262 258 234 235 238 234 241 238 256
281 285 290 295 292 284 278 277 278 276 273 273 269 263 255 244 233 231 228 231 231 237 240 243 239 242 245 255 253 250 250 253 255 254 254 245 232 229 231 238 239 239 240
283 286 286 289 292 291 288 287 284 279 275 268 257 250 237 229 230 230 229 226 229 233 237 238 234 238 238 243 244 243 242 241 247 249 249 248 246 244 244 246 249 253 260
283 284 284 289 293 295 291 286 277 264 246 241 253 244 235 226 224 226 222 224 230 233 236 232 233 239 237 237 237 241 242 244 244 243 242 241 245 247 247 247 249 251 252
277 285 283 289 287 292 292 295 288 264 245 251 240 238 233 222 224 226 225 226 233 236 229 225 233 236 233 234 236 239 241 245 247 251 254 251 254 254 255 255 255 256 257
279 282 287 292 283 290 285 292 278 278 227 206 237 236 227 223 225 225 226 233 238 236 214 227 233 235 232 233 234 237 242 247 252 250 254 256 259 258 260 259 256 258 258
281 283 288 287 284 278 288 276 296 269 213 193 194 229 239 223 228 223 228 229 237 214 220 228 234 238 237 233 234 236 253 251 254 258 257 254 257 258 263 264 256 257 264
276 273 276 282 284 285 284 278 319 318 228 203 201 229 223 201 223 252 237 244 230 224 230 232 239 249 256 248 244 248 249 250 256 251 255 261 267 266 257 258 260 272 276
273 267 259 283 293 339 346 320 270 277 226 221 209 206 209 226 229 216 224 225 236 237 236 249 243 247 237 241 248 250 249 249 249 268 256 253 258 257 267 265 266 268 271
273 260 259 273 285 309 331 339 339 268 271 210 210 200 196 201 195 195 193 195 202 224 237 227 228 229 224 236 233 237 242 248 252 255 261 262 264 265 269 269 266 268 274
277 275 259 258 264 272 309 312 305 254 241 223 214 205 195 193 194 196 198 199 202 206 213 218 222 224 227 230 237 242 246 251 256 259 263 266 267 270 272 273 273 274 276